Flag for U.S.A. Weather past 2 weeks in Mountain View, California, U.S.A.

Now
53 °F

Clear.


Feels Like: 52 °F
Forecast: 47 / 63 °F
Wind: 5 mph from Southwest

Location: Moffett Field

Current Time: Apr 1, 2015 at 2:31:08 AM

Latest Report: Apr 1, 2015 at 1:56 AM


Visibility: 10 mi

Pressure: 30.22 "Hg

Humidity: 56%

Dew point: 38 °F

Location of Mountain ViewLocation

Historic Weather in Mountain View — Graph

°F

Mountain View temperature yesterday

Maximum temperature yesterday: 68 °F (at 1:56 PM)
Minimum temperature yesterday: 50 °F (at 5:56 AM)
Average temperature yesterday: 59 °F

Past Weeks' High & Low Weather Summary

 TemperatureHumidityPressure
High82 °F (Mar 26, 3:56 PM)90% (Mar 23, 1:56 AM)30.33 "Hg (Mar 23, 1:56 AM)
Low48 °F (Mar 18, 4:56 AM)27% (Mar 19, 12:56 PM)30.00 "Hg (Mar 19, 6:56 PM)
Average60 °F67%30.14 "Hg
* Reported Mar 17 12:56 AM — Apr 1 12:56 AM, Mountain View, Weather by CustomWeather, © 2015

Note: Actual official high and low records may vary slightly from our data, if they occured in-between our weather recording intervals... More about our weather records

Advertising

Mountain View weather history for previous 24 hours

 ConditionsComfort  
Time TempWeatherWind HumidityBarometerVisibility
12:56 AM
Wed, Apr 1
54 °FClear.3 mph57%30.22 "Hg10 mi
11:56 PM
Tue, Mar 31
56 °FClear.5 mph53%30.21 "Hg10 mi
10:56 PM56 °FClear.7 mph53%30.21 "Hg10 mi
9:56 PM56 °FClear.8 mph53%30.19 "Hg10 mi
8:56 PM56 °FClear.5 mph51%30.18 "Hg10 mi
7:56 PM58 °FSunny.12 mph47%30.16 "Hg10 mi
6:56 PM61 °FSunny.9 mph41%30.15 "Hg10 mi
5:56 PM64 °FSunny.14 mph37%30.16 "Hg10 mi
4:56 PM66 °FSunny.10 mph34%30.15 "Hg10 mi
3:56 PM67 °FSunny.10 mph37%30.15 "Hg10 mi
2:56 PM68 °FSunny.15 mph38%30.16 "Hg10 mi
1:56 PM68 °FSunny.13 mph38%30.18 "Hg10 mi
12:56 PM66 °FSunny.16 mph49%30.20 "Hg10 mi
11:56 AM65 °FSunny.12 mph54%30.19 "Hg10 mi
10:56 AM64 °FSunny.15 mph58%30.20 "Hg10 mi
9:56 AM61 °FPassing clouds.8 mph67%30.19 "Hg10 mi
8:56 AM58 °FOvercast.6 mph75%30.19 "Hg10 mi
7:56 AM56 °FSunny.10 mph77%30.16 "Hg10 mi
6:56 AM50 °FClear.No wind77%30.14 "Hg10 mi
5:56 AM50 °FClear.No wind74%30.13 "Hg10 mi
4:56 AM51 °FClear.No wind74%30.12 "Hg10 mi
3:56 AM54 °FClear.7 mph74%30.11 "Hg10 mi
2:56 AM54 °FClear.No wind69%30.11 "Hg10 mi
Weather by CustomWeather, © 2015

See weather overviewHow to use our weather pages